Regional Weather Roundup
Issued by NWS

Home | Current Version | Previous Version | Text Only | Print | Product List | Glossary Off
Versions: 1 2 3 4 5 6 7 8 9 10 11 12 13 14 15 16 17 18 19 20 21 22 23 24 25 26 27 28 29 30 31 32 33 34 35 36 37 38 39 40 41 42 43 44 45 46 47 48 49 50

000
ASUS45 KCYS 231910
RWRWY

WYOMING REGIONAL WEATHER ROUNDUP
NATIONAL WEATHER SERVICE CHEYENNE WY
100 PM MDT SAT MAY 23 2015

NOTE:  "FAIR" INDICATES FEW OR NO CLOUDS BELOW 12,000 FEET
WITH NO SIGNIFICANT WEATHER AND/OR OBSTRUCTIONS TO VISIBILITY.

WYZ001-232000-
YELLOWSTONE NATIONAL PARK

CITY           SKY/WX    TMP DP  RH WIND       PRES   REMARKS
LK YELLOWSTONE   N/A     48  36  63 S5        30.03S
W YELLOWSTONE  NOT AVBL

$$
WYZ002>013-054>058-071-098>099-232000-
NORTHERN WYOMING

CITY           SKY/WX    TMP DP  RH WIND       PRES   REMARKS
JACKSON        LGT RAIN  45  43  93 S9        29.99R
CODY           CLOUDY    48  46  93 N16       30.00R
GREYBULL       CLOUDY    56  51  84 NW3       29.95R
WORLAND        FAIR      59  50  72 W8        29.94S
SHERIDAN       LGT RAIN  52  46  80 CALM      30.01S
BUFFALO        CLOUDY    52  46  80 N7        30.01S
GILLETTE       CLOUDY    53  45  74 SE12      30.01S
HULETT         CLOUDY    55  45  67 W5        30.05R
NEWCASTLE      MOCLDY    54  43  66 SE14      30.04F

$$
WYZ014>020-022>026-101>103-232000-
CENTRAL WYOMING

CITY           SKY/WX    TMP DP  RH WIND       PRES   REMARKS
BIG PINEY      FAIR      51  40  65 VRB5      30.00S
PINEDALE       MOCLDY    52  36  54 CALM      30.00F
DUBOIS         LGT RAIN  37  36  93 CALM      30.02S
LANDER         FAIR      58  44  60 NW9       29.93S
RIVERTON       PTSUNNY   59  45  59 N8        29.95F
CASPER         FAIR      59  43  55 NE8       29.96F
DOUGLAS        FAIR      59  46  62 SE13      29.98F

$$
WYZ021-027>030-104>119-232000-
SOUTHERN WYOMING

CITY           SKY/WX    TMP DP  RH WIND       PRES   REMARKS
EVANSTON       CLOUDY    53  39  59 VRB7      29.96F
KEMMERER       FAIR      50  37  62 NW6       29.99F
FORT BRIDGER   MOCLDY    55  37  50 E6        30.00S THUNDER
ROCK SPRINGS   PTSUNNY   55  40  56 W9        29.95F THUNDER
DIXON          CLOUDY    57  32  37 SW10      29.98R
RAWLINS        LGT RAIN  47  35  63 W16G25    29.98F
SARATOGA       MOCLDY    54  37  54 N9G17     29.96S
LARAMIE        CLOUDY    50  39  66 SE22      29.99R
CHEYENNE       CLOUDY    55  45  68 S10       29.99F
TORRINGTON     PTSUNNY   60  50  69 E10       29.96F
PINE BLUFFS    CLOUDY    57  50  77 SE3       29.99F

$$



USA.gov is the U.S. government's official web portal to all federal, state and local government web resources and services.